User: anonymous   Login
Location: Bergheim
(50.9593°N, 6.6400°E)
Time: 19:46:13
(UTC+01:00)
Language:

ISS - Orbit

View from above orbital plane
View from above orbital plane
View from above satellite
View from above satellite

Ground track
Ground track

The orbit data is extracted from the following two-line orbital elements,

1 25544U 98067A   24053.50416726  .00015852  00000-0  28281-3 0  9990
2 25544  51.6408 168.6555 0002154 305.6979 131.8336 15.50237107440614
Epoch (UTC): 22 February 2024 12:06:00
Eccentricity: 0.0002154
inclination: 51.6408°
perigee height: 414 km
apogee height: 417 km
right ascension of ascending node: 168.6555°
argument of perigee: 305.6979°
revolutions per day: 15.50237107
mean anomaly at epoch: 131.8336°
orbit number at epoch: 44061

The dashed part of the orbit path shows where the satellite is in the earth's shadow,  

DLR